Tracking 28790 objects as of 19-Apr-2024
HD Live streaming from Space Station
objects crossing your sky now

DELTA 1 R/B

Track DELTA 1 R/B now!
10-day predictions


NORAD ID: 4298
Int'l Code: 1970-003B
Perigee: 346.9 km
Apogee: 25,794.3 km
Inclination: 27.9 °
Period: 449.6 minutes
Semi major axis: 19441 km
RCS: 1.2334 m2 (large)
Launch date: January 15, 1970
Source: United States (US)
Launch site: AIR FORCE EASTERN TEST RANGE (AFETR)

Note: This is a ROCKET BODY
Your satellite tracking list
Your tracking list is empty




NASA's NSSDC Master Catalog

Two Line Element Set (TLE):
1 04298U 70003B   24109.38710678  .00004163  00000-0  32039-2 0  9992
2 04298  27.8704 137.1776 6544571  61.7416 348.5975  3.20260885538171
Source of the keplerian elements: AFSPC